{"data":{"norad_id":57171,"intl_designator":"2023-091F","name":"2023-091F","alt_names":[],"object_type":"PAYLOAD","status":"ACTIVE","operator":null,"country":"CIS","launch_date":"2023-06-27","launch_site_code":"VOSTO","launch_vehicle":null,"mission":null,"orbit_class":"UNKNOWN","rcs_meters":null,"size_class":null,"mass_kg":null,"dimensions":null,"purposes":[],"wikipedia_slug":null,"has_3d_model":false,"image_url":null,"decayed_at":null,"tle_current":{"epoch":"2026-05-25T04:55:35.056704Z","epoch_age_seconds":51273,"freshness":"FRESH","line1":"1 57171U 23091F   26145.20526686  .00008299  00000+0  34760-3 0  9999","line2":"2 57171  97.5126 206.7296 0011100 183.4233 176.6930 15.23742708160662","mean_motion":15.23742708,"eccentricity":0.00111,"inclination_deg":97.5126,"raan_deg":206.7296,"arg_perigee_deg":183.4233,"mean_anomaly_deg":176.693,"bstar":0.0003476,"rev_number":16066,"period_min":94.504143805885,"perigee_km":486.9347380508,"apogee_km":502.19213301769,"semimajor_km":6872.7004355342,"source":"CELESTRAK","updated_at":"2026-05-25T13:37:59.904832Z"}}}